DLH4X EDDM-EDDB

Flight info

Callsign DLH4X
Flight time 0h 50m
Altitude 29000
Route AKINI1E AKINI Y104 MAMOR L132 RUDNO T203 TIVDA DCT ETVIS DCT NAVEK DCT GAVLI T203 ATGUP ATGUP1R
Aircraft A321/M-SDE2E3FGIJ1LORWXYZ/HB1

Departure

Time 2026-05-08 05:17
Airport Munich Airport (EDDM)

Arrival

Time 2026-05-08 06:07
Airport Berlin Brandenburg Airport (EDDB)
Time Latitude Longitude Altitude Speed Heading
2026-05-08 03:44 48.35841 11.79244 1485 ft 0 kts 263°
2026-05-08 04:14 48.35842 11.79258 1485 ft 3 kts 263°
2026-05-08 04:14 48.35845 11.79291 1482 ft 3 kts 263°
2026-05-08 04:15 48.35847 11.79325 1475 ft 3 kts 263°
2026-05-08 04:15 48.35850 11.79359 1476 ft 3 kts 263°
2026-05-08 04:15 48.35852 11.79387 1477 ft 2 kts 263°
2026-05-08 04:15 48.35856 11.79419 1477 ft 3 kts 245°
2026-05-08 04:16 48.35868 11.79444 1471 ft 3 kts 203°
2026-05-08 04:16 48.35887 11.79447 1475 ft 3 kts 173°
2026-05-08 04:16 48.35902 11.79444 1476 ft 0 kts 173°
2026-05-08 04:29 48.35841 11.79244 1485 ft 1 kts 263°
2026-05-08 04:42 48.35841 11.79246 1485 ft 2 kts 263°
2026-05-08 04:42 48.35844 11.79279 1471 ft 3 kts 263°
2026-05-08 04:43 48.35847 11.79313 1473 ft 3 kts 263°
2026-05-08 04:43 48.35849 11.79341 1481 ft 3 kts 251°
2026-05-08 04:43 48.35859 11.79368 1483 ft 3 kts 216°
2026-05-08 04:43 48.35878 11.79380 1481 ft 3 kts 176°
2026-05-08 04:44 48.35899 11.79377 1477 ft 3 kts 173°
2026-05-08 04:44 48.35904 11.79376 1478 ft 0 kts 173°
2026-05-08 04:51 48.35841 11.79244 1479 ft 1 kts 263°
2026-05-08 05:02 48.35839 11.79266 1481 ft 3 kts 288°
2026-05-08 05:03 48.35838 11.79268 1482 ft 0 kts 286°
2026-05-08 05:07 48.35838 11.79267 1481 ft 1 kts 285°
2026-05-08 05:08 48.35835 11.79261 1482 ft 1 kts 239°
2026-05-08 05:08 48.35810 11.79277 1480 ft 9 kts 155°
2026-05-08 05:08 48.35716 11.79343 1476 ft 21 kts 156°
2026-05-08 05:08 48.35551 11.79421 1479 ft 27 kts 166°
2026-05-08 05:09 48.35364 11.79470 1485 ft 28 kts 173°
2026-05-08 05:09 48.35163 11.79505 1482 ft 30 kts 173°
2026-05-08 05:09 48.34954 11.79541 1480 ft 31 kts 173°
2026-05-08 05:09 48.34819 11.79560 1486 ft 11 kts 188°
2026-05-08 05:10 48.34784 11.79468 1482 ft 12 kts 263°
2026-05-08 05:10 48.34761 11.79169 1486 ft 17 kts 263°
2026-05-08 05:10 48.34747 11.78981 1486 ft 19 kts 263°
2026-05-08 05:11 48.34731 11.78769 1485 ft 21 kts 264°
2026-05-08 05:11 48.34713 11.78536 1485 ft 23 kts 263°
2026-05-08 05:11 48.34696 11.78324 1475 ft 18 kts 263°
2026-05-08 05:11 48.34681 11.78134 1479 ft 16 kts 263°
2026-05-08 05:12 48.34668 11.77964 1485 ft 18 kts 263°
2026-05-08 05:12 48.34653 11.77768 1479 ft 20 kts 263°
2026-05-08 05:12 48.34636 11.77550 1476 ft 22 kts 263°
2026-05-08 05:12 48.34618 11.77311 1480 ft 24 kts 263°
2026-05-08 05:13 48.34598 11.77055 1485 ft 26 kts 263°
2026-05-08 05:13 48.34577 11.76780 1480 ft 27 kts 263°
2026-05-08 05:13 48.34555 11.76489 1481 ft 29 kts 263°
2026-05-08 05:13 48.34534 11.76220 1485 ft 22 kts 263°
2026-05-08 05:14 48.34515 11.75976 1485 ft 24 kts 263°
2026-05-08 05:14 48.34497 11.75744 1482 ft 20 kts 263°
2026-05-08 05:14 48.34481 11.75529 1475 ft 20 kts 263°
2026-05-08 05:14 48.34466 11.75335 1485 ft 17 kts 263°
2026-05-08 05:15 48.34442 11.75230 1478 ft 11 kts 218°
2026-05-08 05:15 48.34371 11.75224 1475 ft 11 kts 172°
2026-05-08 05:15 48.34288 11.75239 1485 ft 13 kts 174°
2026-05-08 05:15 48.34189 11.75257 1481 ft 14 kts 173°
2026-05-08 05:16 48.34108 11.75274 1476 ft 10 kts 163°
2026-05-08 05:16 48.34090 11.75390 1485 ft 19 kts 84°
2026-05-08 05:16 48.34138 11.76003 1481 ft 100 kts 83°
2026-05-08 05:16 48.34205 11.76862 1486 ft 148 kts 83°
2026-05-08 05:17 48.34378 11.79156 2309 ft 170 kts 83°
2026-05-08 05:17 48.34472 11.80361 2712 ft 180 kts 83°
2026-05-08 05:17 48.34674 11.83033 3211 ft 209 kts 84°
2026-05-08 05:17 48.34847 11.85355 3540 ft 237 kts 84°
2026-05-08 05:18 48.34975 11.87032 3956 ft 247 kts 84°
2026-05-08 05:18 48.35172 11.89650 4739 ft 256 kts 83°
2026-05-08 05:18 48.35378 11.92353 5567 ft 263 kts 83°
2026-05-08 05:18 48.35590 11.95109 6428 ft 269 kts 83°
2026-05-08 05:19 48.36095 11.97884 7039 ft 282 kts 60°
2026-05-08 05:19 48.37365 12.00123 7771 ft 285 kts 33°
2026-05-08 05:19 48.39179 12.01292 8578 ft 285 kts
2026-05-08 05:19 48.41156 12.01660 9451 ft 287 kts
2026-05-08 05:20 48.43113 12.02262 10263 ft 296 kts 14°
2026-05-08 05:20 48.45158 12.03226 10642 ft 318 kts 14°
2026-05-08 05:20 48.47329 12.04265 11104 ft 332 kts 15°
2026-05-08 05:20 48.49549 12.05345 11809 ft 338 kts 15°
2026-05-08 05:21 48.51796 12.06451 12564 ft 342 kts 15°
2026-05-08 05:21 48.54044 12.07565 13327 ft 346 kts 15°
2026-05-08 05:21 48.56343 12.08702 14061 ft 350 kts 15°
2026-05-08 05:21 48.58675 12.09853 14745 ft 354 kts 15°
2026-05-08 05:22 48.61028 12.11012 15429 ft 358 kts 15°
2026-05-08 05:22 48.63413 12.12181 16127 ft 361 kts 15°
2026-05-08 05:22 48.65821 12.13361 16824 ft 365 kts 16°
2026-05-08 05:22 48.68252 12.14553 17528 ft 368 kts 15°
2026-05-08 05:23 48.70676 12.15744 18208 ft 372 kts 15°
2026-05-08 05:23 48.73154 12.16963 18814 ft 376 kts 15°
2026-05-08 05:23 48.75657 12.18194 19401 ft 380 kts 15°
2026-05-08 05:23 48.78182 12.19435 19993 ft 383 kts 15°
2026-05-08 05:24 48.80733 12.20693 20595 ft 386 kts 15°
2026-05-08 05:24 48.83299 12.21962 21189 ft 390 kts 15°
2026-05-08 05:24 48.85887 12.23248 21777 ft 393 kts 15°
2026-05-08 05:24 48.88501 12.24548 22369 ft 396 kts 15°
2026-05-08 05:25 48.91127 12.25852 22938 ft 399 kts 15°
2026-05-08 05:25 48.93776 12.27167 23505 ft 402 kts 15°
2026-05-08 05:25 48.96451 12.28494 23987 ft 405 kts 15°
2026-05-08 05:25 48.99104 12.29810 24450 ft 408 kts 15°
2026-05-08 05:26 49.01814 12.31159 24916 ft 410 kts 15°
2026-05-08 05:26 49.04539 12.32518 25383 ft 413 kts 15°
2026-05-08 05:26 49.07279 12.33888 25853 ft 416 kts 15°
2026-05-08 05:26 49.10037 12.35269 26347 ft 418 kts 15°
2026-05-08 05:27 49.12809 12.36661 26826 ft 420 kts 15°
2026-05-08 05:27 49.15595 12.38058 27296 ft 423 kts 15°
2026-05-08 05:27 49.18404 12.39466 27740 ft 425 kts 15°
2026-05-08 05:27 49.21229 12.40878 28182 ft 428 kts 15°
2026-05-08 05:28 49.24070 12.42305 28627 ft 431 kts 15°
2026-05-08 05:28 49.26890 12.43727 29053 ft 434 kts 15°
2026-05-08 05:28 49.29765 12.45175 29495 ft 437 kts 15°
2026-05-08 05:28 49.32665 12.46638 29943 ft 439 kts 15°
2026-05-08 05:29 49.35579 12.48116 30336 ft 442 kts 15°
2026-05-08 05:29 49.38509 12.49606 30686 ft 444 kts 15°
2026-05-08 05:29 49.41459 12.51104 30999 ft 447 kts 15°
2026-05-08 05:30 49.47235 12.54039 31087 ft 424 kts 15°
2026-05-08 05:30 49.52770 12.56852 31096 ft 415 kts 14°
2026-05-08 05:31 49.58254 12.59639 31093 ft 414 kts 14°
2026-05-08 05:31 49.63723 12.62441 31092 ft 414 kts 14°
2026-05-08 05:32 49.69153 12.65237 31095 ft 413 kts 14°
2026-05-08 05:32 49.74612 12.68054 31111 ft 413 kts 15°
2026-05-08 05:33 49.80075 12.70888 31109 ft 413 kts 15°
2026-05-08 05:33 49.85490 12.73709 31110 ft 413 kts 15°
2026-05-08 05:34 49.90937 12.76560 31110 ft 413 kts 15°
2026-05-08 05:34 49.96388 12.79410 31132 ft 412 kts 15°
2026-05-08 05:35 50.01833 12.82260 31131 ft 412 kts 15°
2026-05-08 05:35 50.07270 12.85104 31131 ft 412 kts 15°
2026-05-08 05:36 50.12696 12.87976 31131 ft 412 kts 15°
2026-05-08 05:36 50.18085 12.90829 31138 ft 412 kts 15°
2026-05-08 05:37 50.23506 12.93701 31137 ft 411 kts 15°
2026-05-08 05:37 50.28902 12.96657 31132 ft 412 kts 20°
2026-05-08 05:38 50.34060 13.00663 31132 ft 413 kts 23°
2026-05-08 05:38 50.39155 13.04711 31130 ft 412 kts 23°
2026-05-08 05:39 50.44271 13.08792 31127 ft 412 kts 23°
2026-05-08 05:39 50.49386 13.12871 31128 ft 412 kts 23°
2026-05-08 05:40 50.54471 13.16912 31131 ft 412 kts 23°
2026-05-08 05:40 50.57895 13.19652 31131 ft 412 kts 23°
2026-05-08 05:41 50.64968 13.25346 31147 ft 411 kts 24°
2026-05-08 05:41 50.70038 13.29435 31150 ft 411 kts 24°
2026-05-08 05:42 50.74281 13.32868 31148 ft 410 kts 24°
2026-05-08 05:42 50.80191 13.37657 31143 ft 410 kts 24°
2026-05-08 05:43 50.85312 13.41821 31118 ft 423 kts 24°
2026-05-08 05:43 50.87949 13.43961 30659 ft 426 kts 24°
2026-05-08 05:43 50.90586 13.46109 30024 ft 424 kts 24°
2026-05-08 05:43 50.93251 13.48051 29371 ft 418 kts 16°
2026-05-08 05:44 50.96036 13.49221 28710 ft 411 kts
2026-05-08 05:44 50.98832 13.49961 28271 ft 403 kts
2026-05-08 05:44 51.01576 13.50694 27864 ft 396 kts
2026-05-08 05:44 51.04266 13.51419 27467 ft 389 kts
2026-05-08 05:45 51.06915 13.52135 27071 ft 382 kts
2026-05-08 05:45 51.09521 13.52836 26676 ft 376 kts
2026-05-08 05:45 51.12084 13.53525 26289 ft 370 kts
2026-05-08 05:45 51.14609 13.54208 25901 ft 365 kts
2026-05-08 05:46 51.17069 13.54875 25484 ft 361 kts
2026-05-08 05:46 51.19532 13.55542 25094 ft 357 kts
2026-05-08 05:46 51.21966 13.56201 24696 ft 353 kts
2026-05-08 05:46 51.24370 13.56853 24302 ft 349 kts
2026-05-08 05:47 51.26753 13.57500 23910 ft 346 kts
2026-05-08 05:47 51.29124 13.58142 23471 ft 343 kts
2026-05-08 05:47 51.31464 13.58776 23065 ft 339 kts
2026-05-08 05:47 51.33776 13.59407 22668 ft 335 kts
2026-05-08 05:48 51.36060 13.60028 22277 ft 331 kts
2026-05-08 05:48 51.38321 13.60641 21882 ft 327 kts
2026-05-08 05:48 51.40560 13.61252 21495 ft 325 kts
2026-05-08 05:48 51.42786 13.61862 21109 ft 323 kts
2026-05-08 05:49 51.44998 13.62470 20721 ft 322 kts
2026-05-08 05:49 51.47199 13.63073 20337 ft 320 kts
2026-05-08 05:49 51.49383 13.63674 19968 ft 318 kts
2026-05-08 05:49 51.51551 13.64276 19576 ft 315 kts
2026-05-08 05:50 51.53711 13.64877 19193 ft 313 kts
2026-05-08 05:50 51.55824 13.65461 18819 ft 311 kts
2026-05-08 05:50 51.57949 13.66086 18438 ft 310 kts
2026-05-08 05:50 51.60050 13.66815 18027 ft 308 kts 10°
2026-05-08 05:51 51.62133 13.67593 17642 ft 306 kts 11°
2026-05-08 05:51 51.64204 13.68357 17191 ft 305 kts
2026-05-08 05:51 51.66319 13.68315 16640 ft 302 kts 345°
2026-05-08 05:51 51.67625 13.67608 16400 ft 297 kts 333°
2026-05-08 05:52 51.69483 13.66194 16038 ft 293 kts 333°
2026-05-08 05:52 51.71915 13.64324 15570 ft 290 kts 333°
2026-05-08 05:52 51.73144 13.63376 15343 ft 289 kts 333°
2026-05-08 05:52 51.74950 13.61975 14995 ft 287 kts 333°
2026-05-08 05:53 51.76746 13.60579 14652 ft 286 kts 333°
2026-05-08 05:53 51.78536 13.59194 14311 ft 284 kts 333°
2026-05-08 05:53 51.80292 13.57838 13977 ft 283 kts 334°
2026-05-08 05:53 51.82064 13.56469 13609 ft 281 kts 334°
2026-05-08 05:54 51.83819 13.55108 13257 ft 279 kts 333°
2026-05-08 05:54 51.85571 13.53747 12912 ft 277 kts 334°
2026-05-08 05:54 51.87322 13.52434 12563 ft 276 kts 335°
2026-05-08 05:54 51.89074 13.51174 12233 ft 275 kts 336°
2026-05-08 05:55 51.90803 13.49946 11892 ft 274 kts 336°
2026-05-08 05:55 51.92549 13.48706 11561 ft 272 kts 336°
2026-05-08 05:55 51.94282 13.47468 11217 ft 271 kts 336°
2026-05-08 05:55 51.96002 13.46233 10890 ft 269 kts 336°
2026-05-08 05:56 51.97704 13.45006 10560 ft 266 kts 336°
2026-05-08 05:56 51.99392 13.43791 10231 ft 264 kts 336°
2026-05-08 05:56 52.01066 13.42588 9897 ft 262 kts 336°
2026-05-08 05:56 52.02724 13.41393 9558 ft 259 kts 336°
2026-05-08 05:57 52.04370 13.40207 9242 ft 257 kts 336°
2026-05-08 05:57 52.05998 13.39044 8918 ft 255 kts 336°
2026-05-08 05:57 52.07613 13.37891 8677 ft 250 kts 336°
2026-05-08 05:57 52.09180 13.36773 8535 ft 242 kts 336°
2026-05-08 05:58 52.10729 13.35664 8477 ft 243 kts 335°
2026-05-08 05:58 52.12127 13.34181 8408 ft 245 kts 318°
2026-05-08 05:58 52.13250 13.32074 8044 ft 247 kts 307°
2026-05-08 05:58 52.14276 13.29831 7702 ft 246 kts 307°
2026-05-08 05:59 52.15296 13.27604 7361 ft 245 kts 307°
2026-05-08 05:59 52.16316 13.25389 7044 ft 243 kts 307°
2026-05-08 05:59 52.17325 13.23199 6713 ft 240 kts 307°
2026-05-08 05:59 52.18319 13.21065 6391 ft 239 kts 311°
2026-05-08 06:00 52.19560 13.19282 6028 ft 238 kts 329°
2026-05-08 06:00 52.21059 13.18144 5375 ft 236 kts 340°
2026-05-08 06:00 52.22599 13.17263 4731 ft 232 kts 352°
2026-05-08 06:00 52.24179 13.17428 4129 ft 232 kts 20°
2026-05-08 06:01 52.25760 13.18341 3522 ft 247 kts 12°
2026-05-08 06:01 52.27383 13.18825 3312 ft 222 kts 22°
2026-05-08 06:01 52.28472 13.20281 3064 ft 198 kts 64°
2026-05-08 06:01 52.28770 13.22390 2675 ft 188 kts 81°
2026-05-08 06:02 52.29161 13.24363 2440 ft 175 kts 69°
2026-05-08 06:02 52.29589 13.26146 2312 ft 163 kts 69°
2026-05-08 06:02 52.29983 13.27786 2193 ft 146 kts 69°
2026-05-08 06:02 52.30343 13.29283 2122 ft 139 kts 69°
2026-05-08 06:03 52.30691 13.30732 2058 ft 136 kts 69°
2026-05-08 06:03 52.31034 13.32163 2010 ft 135 kts 69°
2026-05-08 06:03 52.31375 13.33588 1886 ft 134 kts 69°
2026-05-08 06:03 52.31716 13.35012 1726 ft 134 kts 69°
2026-05-08 06:04 52.32056 13.36429 1546 ft 133 kts 69°
2026-05-08 06:04 52.32597 13.37626 1533 ft 136 kts 33°
2026-05-08 06:04 52.33448 13.38335 1446 ft 137 kts 29°
2026-05-08 06:04 52.34231 13.39157 1306 ft 135 kts 43°
2026-05-08 06:05 52.34837 13.40301 1108 ft 132 kts 59°
2026-05-08 06:05 52.35184 13.41699 930 ft 133 kts 71°
2026-05-08 06:05 52.35482 13.43145 776 ft 134 kts 69°
2026-05-08 06:05 52.35822 13.44567 619 ft 135 kts 66°
2026-05-08 06:06 52.36171 13.45994 459 ft 135 kts 67°
2026-05-08 06:06 52.36510 13.47412 314 ft 133 kts 67°
2026-05-08 06:06 52.36844 13.48818 167 ft 132 kts 66°
2026-05-08 06:06 52.37135 13.50043 155 ft 94 kts 69°
2026-05-08 06:07 52.37295 13.50721 155 ft 25 kts 70°
2026-05-08 06:07 52.37307 13.50990 155 ft 24 kts 95°
2026-05-08 06:07 52.37286 13.51194 155 ft 12 kts 99°
2026-05-08 06:07 52.37272 13.51320 155 ft 10 kts 110°
2026-05-08 06:08 52.37214 13.51407 155 ft 13 kts 154°
2026-05-08 06:08 52.37140 13.51442 155 ft 8 kts 203°
2026-05-08 06:08 52.37112 13.51348 155 ft 11 kts 249°
2026-05-08 06:08 52.37082 13.51223 155 ft 13 kts 249°
2026-05-08 06:09 52.37046 13.51071 155 ft 16 kts 249°
2026-05-08 06:09 52.37005 13.50900 155 ft 16 kts 249°
2026-05-08 06:09 52.36966 13.50735 155 ft 15 kts 248°
2026-05-08 06:09 52.36931 13.50588 155 ft 13 kts 248°
2026-05-08 06:10 52.36901 13.50459 155 ft 11 kts 249°
2026-05-08 06:10 52.36874 13.50349 155 ft 10 kts 248°
2026-05-08 06:10 52.36852 13.50257 155 ft 8 kts 249°
2026-05-08 06:10 52.36825 13.50194 155 ft 6 kts 215°
2026-05-08 06:11 52.36781 13.50189 155 ft 7 kts 171°
2026-05-08 06:11 52.36726 13.50169 155 ft 8 kts 196°
2026-05-08 06:11 52.36677 13.50173 155 ft 6 kts 163°
2026-05-08 06:11 52.36643 13.50194 155 ft 5 kts 159°
2026-05-08 06:12 52.36609 13.50215 155 ft 7 kts 159°
2026-05-08 06:12 52.36575 13.50261 155 ft 5 kts 103°
2026-05-08 06:12 52.36583 13.50318 155 ft 5 kts 70°
2026-05-08 06:12 52.36598 13.50381 155 ft 6 kts 68°
2026-05-08 06:13 52.36612 13.50437 155 ft 3 kts 69°
2026-05-08 06:13 52.36615 13.50451 155 ft 0 kts 69°